This demonstration page uses our WeatherBlox Daily Observations layout. Learn more.

Left ArrowRight Arrow

Hourly Observations for September 22, 2021

Temp ( °F °C ) Dew Point ( °F °C ) Humidity (%) Winds ( mph kmh ) Pressure ( in mb ) Visibility ( mi km ) Precip ( " mm )
12:51 am 00:51 Clear 76 24.4 44 6.7 32 32 E 14 22 30.11 1020 10 16 N/A
1:51 am 01:51 Clear 75 23.9 44 6.7 33 33 E 13 20 30.12 1020 10 16 N/A
2:51 am 02:51 Clear 74 23.3 43 6.1 33 33 E 15 24 30.12 1020 10 16 N/A
3:51 am 03:51 Clear 73 22.8 42 5.6 33 33 E 14 22 30.13 1020 10 16 N/A
4:51 am 04:51 Clear 71 21.7 42 5.6 35 35 ESE 9 15 30.15 1021 10 16 N/A
5:51 am 05:51 Clear 67 19.4 42 5.6 41 41 ESE 8 13 30.17 1022 10 16 N/A
6:51 am 06:51 Sunny 68 20 43 6.1 40 40 ESE 7 11 30.20 1023 10 16 N/A
7:51 am 07:51 Sunny 72 22.2 43 6.1 35 35 SSE 12 19 30.22 1023 10 16 N/A
8:51 am 08:51 Sunny 77 25 43 6.1 30 30 SSE 8 13 30.20 1023 10 16 N/A
9:51 am 09:51 Sunny 81 27.2 43 6.1 26 26 S 13 20 30.17 1022 10 16 N/A
10:51 am 10:51 Sunny 82 27.8 43 6.1 25 25 VRB 7 11 30.14 1021 10 16 N/A
11:51 am 11:51 Sunny 86 30 44 6.7 23 23 S 13 20 30.10 1019 10 16 N/A
12:51 pm 12:51 Sunny 90 32.2 44 6.7 20 20 ESE 8 13 30.05 1018 10 16 N/A
1:51 pm 13:51 Sunny 90 32.2 43 6.1 19 19 SE 12 19 30.01 1016 10 16 N/A
2:51 pm 14:51 Sunny 90 32.2 42 5.6 19 19 VRB 5 7 29.98 1015 10 16 N/A
3:51 pm 15:51 Sunny 89 31.7 43 6.1 20 20 SSE 9 15 29.96 1015 10 16 N/A
4:51 pm 16:51 Sunny 88 31.1 43 6.1 21 21 S 8 13 29.93 1014 10 16 N/A
5:51 pm 17:51 Sunny 86 30 43 6.1 22 22 S 3 6 29.93 1014 10 16 N/A
6:51 pm 18:51 Clear 82 27.8 43 6.1 25 25 S 3 6 29.94 1014 10 16 N/A
7:51 pm 19:51 Clear 78 25.6 44 6.7 30 30 SSE 5 7 29.95 1014 10 16 N/A
8:51 pm 20:51 Clear 73 22.8 43 6.1 34 34 E 8 13 29.96 1014 10 16 N/A
9:51 pm 21:51 Clear 72 22.2 43 6.1 35 35 ENE 8 13 29.95 1014 10 16 N/A
10:51 pm 22:51 Clear 71 21.7 43 6.1 36 36 SSE 6 9 29.94 1014 10 16 N/A
11:51 pm 23:51 Clear 72 22.2 43 6.1 35 35 SSE 6 9 29.93 1014 10 16 N/A

Powered by AerisWeather